{"data":{"norad_id":68666,"epoch":"2026-09-19T09:56:49.331040Z","epoch_age_seconds":137634,"freshness":"FRESH","line1":"1 68666U 26077E   26262.41445985  .00012013  00000+0  37384-3 0  9996","line2":"2 68666  97.2858 132.2795 0001906  81.4937 278.6522 15.33443002 24845","mean_motion":15.33443002,"eccentricity":0.0001906,"inclination_deg":97.2858,"raan_deg":132.2795,"arg_perigee_deg":81.4937,"mean_anomaly_deg":278.6522,"bstar":0.00037384,"rev_number":2484,"period_min":93.906327011951,"perigee_km":464.24471255257,"apogee_km":466.85352570118,"semimajor_km":6843.6861191269,"source":"CELESTRAK","updated_at":"2026-09-20T09:00:43.950262Z"}}